FW6259 Weather Reports


time (UTC)temp
C
wind
direction
speed
KPH
gust
KPH
rain 1hr
cm
rain 24hr
cm
rain mn
cm
humidity
%
barometer
mb
20260509094609 0 222 0.0 0.0 0.00 0.10 0.03 96 1002.4
20260509093145 1 222 0.0 0.0 0.00 0.10 0.03 96 1002.5
20260509091502 1 222 0.0 0.0 0.00 0.10 0.03 96 1002.8
20260509084557 1 222 0.0 0.0 0.03 0.10 0.03 95 1003.3
20260509083047 1 222 0.0 0.0 0.03 0.10 0.03 95 1003.5
20260509081556 1 222 0.0 0.0 0.03 0.10 0.03 95 1003.6
20260509080053 1 222 0.0 0.0 0.00 0.08 0.00 95 1003.8
20260509074503 1 222 0.0 0.0 0.00 0.08 0.08 94 1004.0
20260509073056 1 222 0.0 0.0 0.03 0.08 0.08 94 1003.9
20260509071559 1 222 0.0 0.0 0.03 0.08 0.08 93 1004.1
20260509070044 1 222 0.0 0.0 0.03 0.08 0.08 93 1004.3
20260509064559 1 222 0.0 1.6 0.03 0.08 0.08 93 1004.3
20260509063055 2 222 0.0 0.0 0.00 0.05 0.05 93 1004.4
20260509061553 2 222 0.0 0.0 0.03 0.05 0.05 92 1004.7
20260509060002 2 222 0.0 0.0 0.03 0.05 0.05 91 1004.7
20260509054616 2 222 0.0 0.0 0.05 0.05 0.05 91 1004.7
20260509053141 2 222 0.0 1.6 0.05 0.05 0.05 90 1004.6
20260509051552 2 250 0.0 0.0 0.03 0.03 0.03 88 1004.8
20260509050005 2 250 0.0 0.0 0.03 0.03 0.03 87 1004.9
20260509044555 3 219 0.0 0.0 0.00 0.00 0.00 87 1005.1
20260509043050 3 150 0.0 0.0 0.00 0.00 0.00 84 1005.2
20260509041546 3 151 0.0 0.0 0.00 0.00 0.00 83 1005.3
20260509040113 3 304 0.0 1.6 0.00 0.00 0.00 82 1005.4
20260509034627 3 309 0.0 3.2 0.00 0.00 0.00 81 1005.5
20260509033049 3 129 0.0 0.0 0.00 0.00 0.00 80 1005.8
20260509031501 3 144 0.0 3.2 0.00 0.00 0.00 81 1005.9
20260509030109 4 226 0.0 1.6 0.00 0.00 0.00 82 1005.9
20260509024554 4 124 1.6 6.4 0.00 0.00 0.00 80 1006.0
20260509023052 4 156 1.6 8.0 0.00 0.00 0.00 77 1006.0
20260509021504 5 96 0.0 4.8 0.00 0.00 0.00 71 1006.2
20260509020056 5 182 3.2 12.9 0.00 0.00 0.00 68 1006.2
20260509014600 6 204 0.0 8.0 0.00 0.00 0.00 63 1006.1
20260509013102 6 162 4.8 11.3 0.00 0.00 0.00 62 1006.2
20260509011503 6 162 1.6 11.3 0.00 0.00 0.00 63 1006.4
20260509010056 6 232 4.8 17.7 0.00 0.00 0.00 65 1006.4
20260509004549 6 253 6.4 14.5 0.00 0.00 0.00 63 1006.5
20260509003134 6 241 6.4 14.5 0.00 0.00 0.00 62 1006.7
20260509001606 6 41 6.4 11.3 0.00 0.00 0.00 63 1006.9
20260509000106 6 84 6.4 14.5 0.00 0.00 0.00 61 1007.0
20260508234546 7 236 8.0 19.3 0.00 0.00 0.00 58 1007.2
20260508233058 7 194 8.0 16.1 0.00 0.00 0.00 56 1007.1
20260508231553 7 89 3.2 11.3 0.00 0.00 0.00 56 1007.3
20260508230043 7 193 6.4 17.7 0.00 0.00 0.00 58 1007.4
20260508224606 7 281 8.0 14.5 0.00 0.00 0.00 57 1007.7
20260508223046 6 195 6.4 20.9 0.00 0.00 0.00 57 1007.8
20260508221507 7 241 8.0 22.5 0.00 0.00 0.00 54 1007.8
20260508220055 7 151 4.8 16.1 0.00 0.00 0.00 53 1008.0
20260508214554 7 252 6.4 20.9 0.00 0.00 0.00 51 1008.1
20260508213046 7 103 4.8 16.1 0.00 0.00 0.00 54 1008.1
20260508211559 7 146 8.0 19.3 0.00 0.00 0.00 55 1008.4
20260508210048 7 214 6.4 16.1 0.00 0.00 0.00 48 1008.4
20260508204547 7 243 8.0 16.1 0.00 0.00 0.00 53 1008.5
20260508203001 7 223 6.4 16.1 0.00 0.00 0.00 50 1008.7
20260508201610 8 245 8.0 19.3 0.00 0.00 0.00 50 1008.7
20260508200108 7 219 6.4 14.5 0.00 0.00 0.00 49 1008.8
20260508193059 7 49 0.0 6.4 0.00 0.00 0.00 50 1009.0
20260508191504 7 247 3.2 6.4 0.00 0.00 0.00 49 1009.2
20260508190059 6 99 1.6 9.7 0.00 0.00 0.00 52 1009.4
20260508184608 6 79 6.4 12.9 0.00 0.00 0.00 52 1009.6
20260508183058 6 117 4.8 9.7 0.00 0.00 0.00 52 1009.8
20260508181503 6 167 3.2 8.0 0.00 0.00 0.00 52 1010.1
20260508180054 6 71 3.2 9.7 0.00 0.00 0.00 53 1010.3
20260508174602 6 99 4.8 9.7 0.00 0.00 0.00 53 1010.5
20260508173043 6 42 1.6 11.3 0.00 0.00 0.00 56 1010.8
20260508171601 5 36 1.6 9.7 0.00 0.00 0.00 57 1011.0
20260508170046 5 293 1.6 6.4 0.00 0.00 0.00 59 1011.2
20260508164504 5 44 1.6 11.3 0.00 0.00 0.00 59 1011.5
20260508163116 5 51 1.6 4.8 0.00 0.00 0.00 59 1011.8
20260508161558 4 82 0.0 4.8 0.00 0.00 0.00 61 1012.0
20260508160052 4 67 1.6 4.8 0.00 0.00 0.00 63 1012.1
20260508154552 3 86 1.6 3.2 0.00 0.00 0.00 65 1012.2
20260508153057 2 63 0.0 3.2 0.00 0.00 0.00 69 1012.5
20260508151554 1 67 0.0 0.0 0.00 0.00 0.00 72 1012.6
20260508150046 1 66 0.0 0.0 0.00 0.00 0.00 74 1012.8
20260508144503 1 66 0.0 0.0 0.00 0.00 0.00 73 1013.0
20260508143052 0 63 0.0 0.0 0.00 0.00 0.00 78 1013.2
20260508141547 -1 219 0.0 0.0 0.00 0.00 0.00 81 1013.4
20260508140044 -1 219 0.0 0.0 0.00 0.00 0.00 83 1013.6
20260508134601 -2 219 0.0 0.0 0.00 0.00 0.00 85 1013.9
20260508133049 -2 219 0.0 0.0 0.00 0.00 0.00 85 1013.9
20260508131505 -2 229 0.0 0.0 0.00 0.00 0.00 85 1014.1
20260508130107 -2 229 0.0 0.0 0.00 0.00 0.00 83 1014.1
20260508124548 -1 229 0.0 0.0 0.00 0.00 0.00 82 1014.5
20260508123046 -1 229 0.0 0.0 0.00 0.00 0.00 82 1014.5
20260508121559 -1 229 0.0 1.6 0.00 0.00 0.00 80 1014.7
20260508120049 -1 231 0.0 1.6 0.00 0.00 0.00 79 1014.8
20260508114600 0 11 0.0 1.6 0.00 0.00 0.00 76 1015.0
20260508113056 0 22 0.0 3.2 0.00 0.00 0.00 76 1015.2
20260508111550 0 77 0.0 1.6 0.00 0.00 0.00 74 1015.4
20260508110133 0 77 0.0 3.2 0.00 0.00 0.00 73 1015.6
20260508104603 0 61 0.0 1.6 0.00 0.00 0.00 74 1015.6
20260508103057 0 62 0.0 6.4 0.00 0.00 0.00 73 1015.8
20260508101552 0 32 0.0 6.4 0.00 0.00 0.00 73 1015.9
20260508100057 1 115 0.0 0.0 0.00 0.00 0.00 69 1015.9